Tracking 18984 objects as of 24-Feb-2018
HD Live streaming from Space Station
objects crossing your sky now

CZ-3B DEB

Track CZ-3B DEB now!


NORAD ID: 42463
Int'l Code: 2010-042AE
Perigee: 556.5 km
Apogee: 41,663.4 km
Inclination: 24.2 °
Period: 755.6 minutes
Semi major axis: 27480 km
RCS: Unknown
Launch date: September 4, 2010
Source: People's Republic of China (PRC)
Launch site: Xichang Space Center, China (XSC)

Note: This is SATELLITE DEBRIS
aabbcc
Your satellite tracking list
Your tracking list is empty




NASA's NSSDC Master Catalog

Two Line Element Set (TLE):
1 42463U 10042AE  18047.49885640 -.00000237  00000-0 -18921-2 0  9997
2 42463  24.2282 167.2660 7479168  63.0637   1.0690  1.90570567960030
Source of the keplerian elements: AFSPC